Weather History for St. Petersburg Airport, FL

Change the Weather History Date:

Thursday, May 16, 2013

  Actual Average Record
Temperature  
Mean Temperature 76 °F -  
Max Temperature 86 °F 86 °F 93 °F (1985)
Min Temperature 66 °F 71 °F 63 °F (1951)
Cooling Degree Days 11    
Growing Degree Days 26 (Base 50)    
Moisture  
Dew Point 62 °F    
Average Humidity 63    
Maximum Humidity 84    
Minimum Humidity 35    
Precipitation  
Precipitation 0.00 in - - ()
Sea Level Pressure  
Sea Level Pressure 30.08 in    
Wind  
Wind Speed 8 mph (East)    
Max Wind Speed 12 mph    
Max Gust Speed -    
Visibility 10 miles    
Events      
Averages and records for this station are not official NWS values.
T = Trace of Precipitation, MM = Missing Value Source: NWS Daily Summary

Daily Weather History Graph

Daily Weather History Graph

Search for Another Location

Airport:

Trip Planner

Search our weather history database for the weather conditions in past years. The results will help you decide how hot, cold, wet, or windy it might be!

Date:

Astronomy

May. 16, 2013 Rise Set
Actual Time 6:40 AM EDT 8:14 PM EDT
Civil Twilight 6:14 AM EDT 8:39 PM EDT
Nautical Twilight 5:44 AM EDT 9:10 PM EDT
Astronomical Twilight 5:12 AM EDT 9:42 PM EDT
Moon 12:03 PM EDT (5/16) 12:41 AM EDT (5/16)
Length of Visible Light 14h 24m
Length of Day
13h 33m
Waxing Crescent, 35% of the Moon is Illuminated
May 16
Waxing Crescent
May 18
First Quarter
May 25
Full
May 31
Last Quarter
Jun 8
New

Hourly Weather History & Observations

Time (EDT) Temp. Heat Index Dew Point Humidity Pressure Visibility Wind Dir Wind Speed Gust Speed Precip Events Conditions
12:53 AM 72.0 °F - 60.1 °F 66% 30.10 in 10.0 mi ESE 8.1 mph - N/A   Clear
1:53 AM 71.1 °F - 61.0 °F 70% 30.09 in 10.0 mi SE 8.1 mph - N/A   Clear
2:53 AM 70.0 °F - 62.1 °F 76% 30.08 in 10.0 mi SE 6.9 mph - N/A   Clear
3:53 AM 70.0 °F - 63.0 °F 78% 30.06 in 10.0 mi SSE 9.2 mph - N/A   Clear
4:53 AM 69.1 °F - 63.0 °F 81% 30.06 in 10.0 mi SSE 8.1 mph - N/A   Clear
5:53 AM 68.0 °F - 62.1 °F 81% 30.06 in 10.0 mi SE 8.1 mph - N/A   Clear
6:53 AM 66.9 °F - 62.1 °F 84% 30.08 in 10.0 mi SSE 5.8 mph - N/A   Clear
7:53 AM 71.1 °F - 62.1 °F 73% 30.10 in 10.0 mi SSE 8.1 mph - N/A   Clear
8:53 AM 75.0 °F - 60.1 °F 60% 30.13 in 10.0 mi SSE 11.5 mph - N/A   Clear
9:53 AM 77.0 °F - 60.1 °F 56% 30.13 in 10.0 mi SE 9.2 mph - N/A   Clear
10:53 AM 79.0 °F - 60.1 °F 52% 30.14 in 10.0 mi Variable 5.8 mph - N/A   Clear
11:53 AM 80.1 °F 81.1 °F 61.0 °F 52% 30.14 in 10.0 mi East 6.9 mph - N/A   Partly Cloudy
12:53 PM 81.0 °F 81.7 °F 61.0 °F 50% 30.12 in 10.0 mi ENE 10.4 mph - N/A   Partly Cloudy
1:53 PM 82.0 °F 82.0 °F 57.9 °F 44% 30.10 in 10.0 mi ENE 9.2 mph - N/A   Clear
2:53 PM 82.9 °F 82.4 °F 57.0 °F 41% 30.08 in 10.0 mi East 5.8 mph - N/A   Clear
3:53 PM 84.9 °F 83.9 °F 57.0 °F 38% 30.05 in 10.0 mi NNE 4.6 mph - N/A   Clear
4:53 PM 86.0 °F 84.5 °F 55.0 °F 35% 30.03 in 10.0 mi North 3.5 mph - N/A   Clear
5:53 PM 82.4 °F 83.4 °F 62.6 °F 51% 30.01 in 10.0 mi NNW 8.1 mph - N/A   Clear
6:53 PM 80.1 °F 81.7 °F 64.0 °F 58% 30.01 in 10.0 mi NW 9.2 mph - N/A   Clear
7:53 PM 77.0 °F - 64.0 °F 64% 30.02 in 10.0 mi NW 10.4 mph - N/A   Clear
8:53 PM 73.9 °F - 64.9 °F 73% 30.04 in 10.0 mi WNW 4.6 mph - N/A   Clear
9:53 PM 73.9 °F - 66.0 °F 76% 30.06 in 10.0 mi WNW 4.6 mph - N/A   Clear
10:53 PM 73.9 °F - 66.0 °F 76% 30.07 in 10.0 mi NW 5.8 mph - N/A   Clear
11:53 PM 73.9 °F - 66.9 °F 79% 30.08 in 10.0 mi NNE 5.8 mph - N/A   Clear